PIMOHWEATHER Station Historical Data
Daily Summary for February 07, 2020 Units:  Metric    English   Both
Daily Weekly Monthly Yearly
  High: Low: Average:
Temperature: 30.0 °C 24.0 °C 26.6 °C
Dew Point: 28.0 °C 22.0 °C 24.6 °C
Humidity: 99% 76% 89%
Wind Speed: 32km/h 0km/h 9.7km/h
Wind Gust: 36km/h - -
Wind- - SSW
Pressure: 1015.2 hPa 1011.2 hPa -
Precipitation: 27.18 mm    
 
 
Tabular Data for February 07, 2020
Time Temperature Dew Point Pressure Wind Wind Speed Wind Gust Humidity Rainfall Rate (Hourly) solar
00:04 26.0 °C 23.0 °C 1012.9 hPa NNE 4 km/h 4 km/h 81% 0.00 mm 0.00 W/m2
00:09 26.0 °C 23.0 °C 1012.9 hPa NNE 2 km/h 4 km/h 81% 0.00 mm 0.00 W/m2
00:14 26.0 °C 23.0 °C 1012.9 hPa NNE 1 km/h 4 km/h 81% 0.00 mm 0.00 W/m2
00:19 26.0 °C 23.0 °C 1012.9 hPa North 8 km/h 12 km/h 81% 0.00 mm 0.00 W/m2
00:24 26.0 °C 23.0 °C 1012.9 hPa North 3 km/h 4 km/h 81% 0.00 mm 0.00 W/m2
00:29 26.0 °C 23.0 °C 1012.5 hPa NNE 5 km/h 8 km/h 81% 0.00 mm 0.00 W/m2
00:34 26.0 °C 23.0 °C 1012.5 hPa NNE 6 km/h 8 km/h 81% 0.00 mm 0.00 W/m2
00:39 26.0 °C 23.0 °C 1012.5 hPa NE 7 km/h 16 km/h 81% 0.00 mm 0.00 W/m2
00:44 26.0 °C 23.0 °C 1012.5 hPa NNE 5 km/h 8 km/h 81% 0.00 mm 0.00 W/m2
00:49 26.0 °C 23.0 °C 1012.5 hPa NNE 4 km/h 8 km/h 80% 0.00 mm 0.00 W/m2
00:54 26.0 °C 23.0 °C 1012.5 hPa NE 5 km/h 8 km/h 80% 0.00 mm 0.00 W/m2
00:59 26.0 °C 23.0 °C 1012.5 hPa NNE 5 km/h 8 km/h 81% 0.00 mm 0.00 W/m2
01:04 26.0 °C 23.0 °C 1012.5 hPa North 4 km/h 4 km/h 81% 0.00 mm 0.00 W/m2
01:09 26.0 °C 23.0 °C 1012.5 hPa NNW 4 km/h 4 km/h 81% 0.00 mm 0.00 W/m2
01:14 26.0 °C 23.0 °C 1012.5 hPa NNW 5 km/h 8 km/h 81% 0.00 mm 0.00 W/m2
01:19 26.0 °C 23.0 °C 1012.2 hPa NNW 9 km/h 12 km/h 81% 0.00 mm 0.00 W/m2
01:24 26.0 °C 23.0 °C 1012.2 hPa North 6 km/h 8 km/h 81% 0.00 mm 0.00 W/m2
01:29 26.0 °C 23.0 °C 1012.2 hPa NNW 4 km/h 8 km/h 81% 0.00 mm 0.00 W/m2
01:34 26.0 °C 23.0 °C 1012.5 hPa NNW 7 km/h 12 km/h 81% 0.00 mm 0.00 W/m2
01:39 26.0 °C 23.0 °C 1012.5 hPa NNW 9 km/h 12 km/h 81% 0.00 mm 0.00 W/m2
01:44 26.0 °C 23.0 °C 1012.5 hPa NNW 10 km/h 12 km/h 81% 0.00 mm 0.00 W/m2
01:49 26.0 °C 23.0 °C 1012.2 hPa North 10 km/h 12 km/h 81% 0.00 mm 0.00 W/m2
01:54 26.0 °C 23.0 °C 1012.2 hPa North 6 km/h 12 km/h 81% 0.00 mm 0.00 W/m2
01:59 26.0 °C 23.0 °C 1012.2 hPa NNE 10 km/h 12 km/h 81% 0.00 mm 0.00 W/m2
02:04 26.0 °C 23.0 °C 1012.2 hPa NNE 8 km/h 12 km/h 81% 0.00 mm 0.00 W/m2
02:09 26.0 °C 23.0 °C 1012.2 hPa North 10 km/h 12 km/h 81% 0.00 mm 0.00 W/m2
02:14 26.0 °C 23.0 °C 1011.9 hPa NNE 9 km/h 12 km/h 82% 0.00 mm 0.00 W/m2
02:19 26.0 °C 23.0 °C 1011.9 hPa North 6 km/h 12 km/h 82% 0.00 mm 0.00 W/m2
02:24 26.0 °C 23.0 °C 1011.9 hPa North 8 km/h 8 km/h 82% 0.00 mm 0.00 W/m2
02:29 26.0 °C 23.0 °C 1011.9 hPa North 9 km/h 12 km/h 82% 0.00 mm 0.00 W/m2
02:34 26.0 °C 23.0 °C 1011.9 hPa North 8 km/h 12 km/h 82% 0.00 mm 0.00 W/m2
02:39 26.0 °C 23.0 °C 1011.5 hPa North 11 km/h 12 km/h 82% 0.00 mm 0.00 W/m2
02:44 26.0 °C 23.0 °C 1011.9 hPa North 9 km/h 12 km/h 83% 0.00 mm 0.00 W/m2
02:49 26.0 °C 23.0 °C 1011.9 hPa North 9 km/h 12 km/h 83% 0.00 mm 0.00 W/m2
02:54 26.0 °C 23.0 °C 1011.9 hPa NW 10 km/h 12 km/h 84% 0.00 mm 0.00 W/m2
02:59 26.0 °C 23.0 °C 1011.9 hPa North 10 km/h 12 km/h 84% 0.00 mm 0.00 W/m2
03:04 26.0 °C 23.0 °C 1011.9 hPa North 10 km/h 12 km/h 84% 0.00 mm 0.00 W/m2
03:09 26.0 °C 23.0 °C 1011.9 hPa North 7 km/h 12 km/h 84% 0.00 mm 0.00 W/m2
03:14 25.0 °C 23.0 °C 1011.9 hPa North 8 km/h 12 km/h 84% 0.00 mm 0.00 W/m2
03:19 25.0 °C 22.0 °C 1011.9 hPa North 10 km/h 12 km/h 84% 0.00 mm 0.00 W/m2
03:24 25.0 °C 22.0 °C 1011.9 hPa North 12 km/h 12 km/h 84% 0.00 mm 0.00 W/m2
03:29 25.0 °C 22.0 °C 1011.9 hPa North 8 km/h 12 km/h 84% 0.00 mm 0.00 W/m2
03:34 25.0 °C 22.0 °C 1011.9 hPa North 10 km/h 12 km/h 84% 0.00 mm 0.00 W/m2
03:39 25.0 °C 23.0 °C 1011.9 hPa North 8 km/h 8 km/h 84% 0.00 mm 0.00 W/m2
03:44 25.0 °C 23.0 °C 1011.9 hPa North 5 km/h 8 km/h 84% 0.00 mm 0.00 W/m2
03:49 25.0 °C 23.0 °C 1011.9 hPa NNW 5 km/h 8 km/h 84% 0.00 mm 0.00 W/m2
03:54 25.0 °C 22.0 °C 1011.9 hPa NNW 5 km/h 8 km/h 84% 0.00 mm 0.00 W/m2
03:59 25.0 °C 22.0 °C 1012.2 hPa NW 5 km/h 8 km/h 84% 0.00 mm 0.00 W/m2
04:04 25.0 °C 22.0 °C 1012.2 hPa North 8 km/h 8 km/h 85% 0.00 mm 0.00 W/m2
04:09 25.0 °C 23.0 °C 1011.9 hPa North 10 km/h 12 km/h 85% 0.00 mm 0.00 W/m2
04:14 25.0 °C 23.0 °C 1011.9 hPa NNW 10 km/h 12 km/h 85% 0.00 mm 0.00 W/m2
04:19 25.0 °C 22.0 °C 1011.9 hPa North 10 km/h 16 km/h 85% 0.00 mm 0.00 W/m2
04:24 25.0 °C 22.0 °C 1011.9 hPa North 12 km/h 16 km/h 85% 0.00 mm 0.00 W/m2
04:29 25.0 °C 23.0 °C 1011.9 hPa North 13 km/h 16 km/h 86% 0.00 mm 0.00 W/m2
04:34 25.0 °C 23.0 °C 1011.9 hPa North 12 km/h 20 km/h 86% 0.00 mm 0.00 W/m2
04:39 25.0 °C 23.0 °C 1012.2 hPa North 15 km/h 20 km/h 86% 0.00 mm 0.00 W/m2
04:44 25.0 °C 23.0 °C 1012.2 hPa North 15 km/h 16 km/h 86% 0.00 mm 0.00 W/m2
04:49 25.0 °C 23.0 °C 1012.2 hPa NNW 13 km/h 16 km/h 86% 0.00 mm 0.00 W/m2
04:54 25.0 °C 23.0 °C 1012.2 hPa North 16 km/h 24 km/h 87% 0.00 mm 0.00 W/m2
04:59 25.0 °C 23.0 °C 1012.2 hPa North 13 km/h 20 km/h 87% 0.00 mm 0.00 W/m2
05:04 25.0 °C 23.0 °C 1012.5 hPa North 10 km/h 12 km/h 87% 0.00 mm 0.00 W/m2
05:09 25.0 °C 23.0 °C 1012.5 hPa North 9 km/h 12 km/h 87% 0.00 mm 0.00 W/m2
05:14 25.0 °C 23.0 °C 1012.5 hPa NNW 10 km/h 12 km/h 87% 0.00 mm 0.00 W/m2
05:19 25.0 °C 23.0 °C 1012.5 hPa North 13 km/h 16 km/h 87% 0.00 mm 0.00 W/m2
05:24 25.0 °C 23.0 °C 1012.5 hPa North 12 km/h 12 km/h 88% 0.00 mm 0.00 W/m2
05:29 25.0 °C 23.0 °C 1012.5 hPa North 11 km/h 16 km/h 88% 0.00 mm 0.00 W/m2
05:34 25.0 °C 23.0 °C 1012.5 hPa NNW 15 km/h 20 km/h 88% 0.00 mm 0.00 W/m2
05:39 25.0 °C 23.0 °C 1012.9 hPa NNW 13 km/h 16 km/h 88% 0.00 mm 0.00 W/m2
05:44 25.0 °C 23.0 °C 1012.9 hPa North 11 km/h 16 km/h 88% 0.00 mm 0.00 W/m2
05:49 25.0 °C 23.0 °C 1012.9 hPa North 10 km/h 12 km/h 88% 0.00 mm 0.00 W/m2
05:54 25.0 °C 22.0 °C 1013.2 hPa North 13 km/h 16 km/h 88% 0.00 mm 0.00 W/m2
05:59 25.0 °C 23.0 °C 1013.2 hPa NNW 13 km/h 16 km/h 89% 0.00 mm 0.00 W/m2
06:04 24.0 °C 23.0 °C 1013.2 hPa NNW 17 km/h 20 km/h 89% 0.00 mm 0.00 W/m2
06:09 24.0 °C 23.0 °C 1013.2 hPa North 14 km/h 16 km/h 89% 0.00 mm 0.00 W/m2
06:14 24.0 °C 23.0 °C 1013.2 hPa North 10 km/h 12 km/h 89% 0.00 mm 0.00 W/m2
06:19 24.0 °C 23.0 °C 1013.2 hPa North 10 km/h 12 km/h 89% 0.00 mm 0.00 W/m2
06:24 25.0 °C 23.0 °C 1013.6 hPa NNE 15 km/h 20 km/h 89% 0.00 mm 0.00 W/m2
06:29 24.0 °C 23.0 °C 1013.6 hPa North 14 km/h 16 km/h 89% 0.00 mm 1.72 W/m2
06:34 24.0 °C 23.0 °C 1013.6 hPa North 12 km/h 12 km/h 90% 0.00 mm 4.05 W/m2
06:39 24.0 °C 23.0 °C 1013.6 hPa NNE 13 km/h 16 km/h 90% 0.00 mm 6.57 W/m2
06:44 24.0 °C 23.0 °C 1013.9 hPa North 13 km/h 16 km/h 90% 0.00 mm 9.00 W/m2
06:49 25.0 °C 23.0 °C 1013.9 hPa North 9 km/h 12 km/h 90% 0.00 mm 17.48 W/m2
06:54 25.0 °C 23.0 °C 1013.9 hPa North 8 km/h 12 km/h 89% 0.00 mm 20.75 W/m2
06:59 25.0 °C 23.0 °C 1013.9 hPa NNE 10 km/h 12 km/h 89% 0.00 mm 28.87 W/m2
07:04 25.0 °C 23.0 °C 1013.9 hPa NNE 10 km/h 12 km/h 89% 0.00 mm 28.83 W/m2
07:09 25.0 °C 23.0 °C 1013.9 hPa NNE 8 km/h 12 km/h 89% 0.00 mm 27.17 W/m2
07:14 25.0 °C 23.0 °C 1014.2 hPa NNE 7 km/h 12 km/h 88% 0.00 mm 30.85 W/m2
07:19 25.0 °C 23.0 °C 1014.2 hPa NE 5 km/h 8 km/h 88% 0.00 mm 40.05 W/m2
07:24 25.0 °C 23.0 °C 1014.2 hPa NNE 12 km/h 16 km/h 88% 0.00 mm 57.25 W/m2
07:29 25.0 °C 23.0 °C 1014.6 hPa NE 8 km/h 12 km/h 89% 0.00 mm 56.64 W/m2
07:34 25.0 °C 23.0 °C 1014.6 hPa NE 10 km/h 12 km/h 91% 0.00 mm 73.37 W/m2
07:39 25.0 °C 24.0 °C 1014.6 hPa NNE 10 km/h 16 km/h 91% 0.00 mm 73.61 W/m2
07:44 25.0 °C 24.0 °C 1014.6 hPa NNE 8 km/h 16 km/h 92% 0.00 mm 84.53 W/m2
07:49 25.0 °C 24.0 °C 1014.6 hPa North 6 km/h 8 km/h 92% 0.00 mm 87.54 W/m2
07:54 25.0 °C 24.0 °C 1014.9 hPa North 3 km/h 8 km/h 92% 0.00 mm 126.30 W/m2
07:59 25.0 °C 24.0 °C 1014.9 hPa North 5 km/h 8 km/h 92% 0.00 mm 126.17 W/m2
08:04 25.0 °C 24.0 °C 1014.9 hPa North 8 km/h 8 km/h 90% 0.00 mm 129.87 W/m2
08:09 25.0 °C 24.0 °C 1014.9 hPa NNE 15 km/h 16 km/h 90% 0.00 mm 133.19 W/m2
08:14 25.0 °C 23.0 °C 1014.9 hPa NNE 15 km/h 16 km/h 89% 0.00 mm 111.72 W/m2
08:19 26.0 °C 24.0 °C 1014.9 hPa North 15 km/h 16 km/h 89% 0.00 mm 116.80 W/m2
08:24 26.0 °C 24.0 °C 1014.9 hPa North 14 km/h 16 km/h 89% 0.00 mm 139.14 W/m2
08:29 26.0 °C 24.0 °C 1014.9 hPa North 13 km/h 16 km/h 89% 0.00 mm 173.47 W/m2
08:34 26.0 °C 24.0 °C 1014.9 hPa NNW 14 km/h 16 km/h 87% 0.00 mm 185.11 W/m2
08:39 26.0 °C 24.0 °C 1014.9 hPa North 17 km/h 20 km/h 86% 0.00 mm 257.07 W/m2
08:44 27.0 °C 24.0 °C 1014.9 hPa North 17 km/h 20 km/h 86% 0.00 mm 255.56 W/m2
08:49 27.0 °C 24.0 °C 1014.9 hPa North 17 km/h 20 km/h 86% 0.00 mm 233.51 W/m2
08:54 27.0 °C 24.0 °C 1015.2 hPa NNW 18 km/h 20 km/h 85% 0.00 mm 253.89 W/m2
08:59 28.0 °C 25.0 °C 1015.2 hPa North 14 km/h 16 km/h 84% 0.00 mm 230.02 W/m2
09:04 28.0 °C 25.0 °C 1015.2 hPa North 14 km/h 20 km/h 84% 0.00 mm 214.52 W/m2
09:09 28.0 °C 25.0 °C 1015.2 hPa North 14 km/h 16 km/h 83% 0.00 mm 282.22 W/m2
09:14 28.0 °C 24.0 °C 1015.2 hPa NNE 15 km/h 20 km/h 82% 0.00 mm 225.61 W/m2
09:19 28.0 °C 25.0 °C 1015.2 hPa North 15 km/h 20 km/h 82% 0.00 mm 322.38 W/m2
09:24 29.0 °C 25.0 °C 1015.2 hPa North 11 km/h 16 km/h 81% 0.00 mm 335.29 W/m2
09:29 29.0 °C 25.0 °C 1015.2 hPa North 15 km/h 20 km/h 80% 0.00 mm 303.83 W/m2
09:34 29.0 °C 25.0 °C 1015.2 hPa North 15 km/h 16 km/h 80% 0.00 mm 334.88 W/m2
09:39 29.0 °C 25.0 °C 1015.2 hPa North 17 km/h 20 km/h 81% 0.00 mm 329.81 W/m2
09:44 29.0 °C 25.0 °C 1015.2 hPa North 12 km/h 16 km/h 79% 0.00 mm 284.87 W/m2
09:49 29.0 °C 25.0 °C 1015.2 hPa NNW 16 km/h 20 km/h 79% 0.00 mm 373.76 W/m2
09:54 29.0 °C 25.0 °C 1014.9 hPa NNW 18 km/h 20 km/h 80% 0.00 mm 410.07 W/m2
09:59 29.0 °C 25.0 °C 1014.9 hPa NNW 19 km/h 24 km/h 80% 0.00 mm 379.46 W/m2
10:04 29.0 °C 25.0 °C 1014.9 hPa NW 20 km/h 28 km/h 81% 0.00 mm 416.92 W/m2
10:09 29.0 °C 25.0 °C 1014.9 hPa NNW 20 km/h 24 km/h 79% 0.00 mm 435.93 W/m2
10:14 29.0 °C 25.0 °C 1014.9 hPa NNW 21 km/h 24 km/h 81% 0.00 mm 228.32 W/m2
10:19 29.0 °C 25.0 °C 1014.9 hPa North 20 km/h 20 km/h 81% 0.00 mm 242.39 W/m2
10:24 29.0 °C 25.0 °C 1014.9 hPa North 15 km/h 20 km/h 80% 0.00 mm 263.68 W/m2
10:29 29.0 °C 25.0 °C 1014.9 hPa North 24 km/h 28 km/h 79% 0.00 mm 324.33 W/m2
10:34 29.0 °C 25.0 °C 1014.6 hPa North 20 km/h 24 km/h 79% 0.00 mm 322.40 W/m2
10:39 29.0 °C 25.0 °C 1014.6 hPa North 23 km/h 28 km/h 78% 0.00 mm 270.85 W/m2
10:44 29.0 °C 25.0 °C 1014.6 hPa North 22 km/h 24 km/h 78% 0.00 mm 468.49 W/m2
10:49 30.0 °C 25.0 °C 1014.6 hPa North 22 km/h 28 km/h 78% 0.00 mm 440.26 W/m2
10:54 29.0 °C 25.0 °C 1014.6 hPa North 25 km/h 28 km/h 78% 0.00 mm 448.24 W/m2
10:59 29.0 °C 25.0 °C 1014.6 hPa North 22 km/h 28 km/h 79% 0.00 mm 445.86 W/m2
11:04 29.0 °C 25.0 °C 1014.6 hPa North 21 km/h 28 km/h 79% 0.00 mm 352.52 W/m2
11:09 29.0 °C 25.0 °C 1014.2 hPa North 24 km/h 28 km/h 79% 0.00 mm 372.75 W/m2
11:14 30.0 °C 25.0 °C 1014.2 hPa NNW 18 km/h 24 km/h 78% 0.00 mm 488.51 W/m2
11:19 30.0 °C 25.0 °C 1014.2 hPa North 19 km/h 24 km/h 77% 0.00 mm 480.65 W/m2
11:24 30.0 °C 25.0 °C 1014.2 hPa North 20 km/h 24 km/h 76% 0.00 mm 487.11 W/m2
11:29 30.0 °C 25.0 °C 1013.9 hPa North 26 km/h 32 km/h 77% 0.00 mm 521.88 W/m2
11:34 29.0 °C 25.0 °C 1013.9 hPa NNW 20 km/h 24 km/h 78% 0.00 mm 454.45 W/m2
11:39 30.0 °C 25.0 °C 1013.9 hPa NNW 22 km/h 24 km/h 78% 0.00 mm 569.81 W/m2
11:44 30.0 °C 25.0 °C 1013.6 hPa NW 24 km/h 28 km/h 77% 0.00 mm 480.31 W/m2
11:49 30.0 °C 25.0 °C 1013.6 hPa NW 32 km/h 36 km/h 79% 0.00 mm 212.70 W/m2
11:54 29.0 °C 25.0 °C 1013.6 hPa NW 32 km/h 36 km/h 79% 0.00 mm 196.59 W/m2
11:59 29.0 °C 25.0 °C 1013.2 hPa NW 27 km/h 32 km/h 79% 0.00 mm 200.41 W/m2
12:04 29.0 °C 25.0 °C 1013.2 hPa NW 27 km/h 32 km/h 78% 0.00 mm 192.08 W/m2
12:09 29.0 °C 25.0 °C 1013.2 hPa NNW 32 km/h 36 km/h 78% 0.00 mm 150.48 W/m2
12:14 29.0 °C 25.0 °C 1013.2 hPa North 21 km/h 28 km/h 79% 0.00 mm 143.28 W/m2
12:19 29.0 °C 25.0 °C 1013.2 hPa North 17 km/h 24 km/h 79% 0.00 mm 151.64 W/m2
12:24 29.0 °C 25.0 °C 1012.9 hPa NNE 22 km/h 24 km/h 78% 0.00 mm 146.68 W/m2
12:29 29.0 °C 25.0 °C 1012.9 hPa North 23 km/h 28 km/h 78% 0.00 mm 131.24 W/m2
12:34 29.0 °C 25.0 °C 1012.9 hPa North 21 km/h 28 km/h 80% 0.00 mm 110.85 W/m2
12:39 29.0 °C 25.0 °C 1012.9 hPa East 14 km/h 16 km/h 81% 0.00 mm 65.81 W/m2
12:44 29.0 °C 26.0 °C 1013.2 hPa SSE 8 km/h 12 km/h 86% 0.00 mm 45.60 W/m2
12:49 29.0 °C 26.0 °C 1012.9 hPa NNW 15 km/h 24 km/h 86% 0.00 mm 56.82 W/m2
12:54 29.0 °C 26.0 °C 1012.9 hPa NNE 15 km/h 24 km/h 89% 1.78 mm 117.81 W/m2
12:59 28.0 °C 26.0 °C 1012.5 hPa North 9 km/h 12 km/h 90% 1.78 mm 216.53 W/m2
13:04 28.0 °C 26.0 °C 1012.5 hPa NW 13 km/h 16 km/h 90% 1.78 mm 376.74 W/m2
13:09 28.0 °C 26.0 °C 1012.5 hPa NNW 17 km/h 20 km/h 89% 0.25 mm 358.54 W/m2
13:14 28.0 °C 26.0 °C 1012.5 hPa North 21 km/h 24 km/h 85% 0.25 mm 270.24 W/m2
13:19 29.0 °C 26.0 °C 1012.5 hPa North 20 km/h 28 km/h 85% 0.25 mm 230.70 W/m2
13:24 29.0 °C 26.0 °C 1012.2 hPa North 20 km/h 24 km/h 84% 0.25 mm 261.18 W/m2
13:29 29.0 °C 26.0 °C 1012.2 hPa NNW 18 km/h 20 km/h 84% 0.25 mm 244.81 W/m2
13:34 29.0 °C 26.0 °C 1011.9 hPa NNW 15 km/h 20 km/h 83% 0.25 mm 256.29 W/m2
13:39 29.0 °C 26.0 °C 1011.9 hPa NW 14 km/h 20 km/h 81% 0.25 mm 271.97 W/m2
13:44 30.0 °C 26.0 °C 1011.9 hPa NW 16 km/h 16 km/h 81% 0.25 mm 223.34 W/m2
13:49 30.0 °C 26.0 °C 1011.5 hPa NNW 15 km/h 20 km/h 79% 0.25 mm 220.74 W/m2
13:54 30.0 °C 26.0 °C 1011.5 hPa NNW 18 km/h 20 km/h 79% 0.25 mm 282.93 W/m2
13:59 30.0 °C 26.0 °C 1011.5 hPa North 15 km/h 20 km/h 77% 0.00 mm 338.18 W/m2
14:04 30.0 °C 26.0 °C 1011.5 hPa NNW 15 km/h 20 km/h 76% 0.00 mm 189.05 W/m2
14:09 30.0 °C 26.0 °C 1011.2 hPa North 18 km/h 24 km/h 76% 0.00 mm 142.28 W/m2
14:14 30.0 °C 25.0 °C 1011.5 hPa North 18 km/h 20 km/h 77% 0.00 mm 107.99 W/m2
14:19 30.0 °C 27.0 °C 1011.5 hPa ENE 9 km/h 12 km/h 84% 5.33 mm 87.72 W/m2
14:24 30.0 °C 28.0 °C 1011.9 hPa SE 7 km/h 12 km/h 92% 16.26 mm 53.63 W/m2
14:29 30.0 °C 28.0 °C 1011.9 hPa ESE 6 km/h 8 km/h 96% 30.73 mm 42.89 W/m2
14:34 29.0 °C 28.0 °C 1011.5 hPa ESE 7 km/h 12 km/h 97% 30.73 mm 44.43 W/m2
14:39 28.0 °C 28.0 °C 1011.9 hPa East 9 km/h 12 km/h 98% 25.15 mm 36.22 W/m2
14:44 28.0 °C 27.0 °C 1011.9 hPa SE 9 km/h 12 km/h 99% 8.89 mm 57.57 W/m2
14:49 27.0 °C 27.0 °C 1011.5 hPa SE 6 km/h 8 km/h 99% 8.38 mm 60.93 W/m2
14:54 26.0 °C 26.0 °C 1011.5 hPa SE 6 km/h 8 km/h 99% 8.64 mm 54.66 W/m2
14:59 26.0 °C 26.0 °C 1011.5 hPa SE 6 km/h 8 km/h 99% 8.64 mm 59.03 W/m2
15:04 26.0 °C 26.0 °C 1011.5 hPa SE 5 km/h 8 km/h 99% 8.64 mm 69.08 W/m2
15:09 26.0 °C 26.0 °C 1011.5 hPa SE 8 km/h 12 km/h 99% 8.64 mm 79.34 W/m2
15:14 26.0 °C 26.0 °C 1011.5 hPa SE 6 km/h 8 km/h 99% 8.64 mm 92.04 W/m2
15:19 26.0 °C 26.0 °C 1011.5 hPa SE 7 km/h 8 km/h 99% 8.64 mm 102.88 W/m2
15:24 26.0 °C 26.0 °C 1011.5 hPa SE 12 km/h 12 km/h 98% 7.37 mm 114.06 W/m2
15:29 26.0 °C 26.0 °C 1011.5 hPa SE 13 km/h 16 km/h 98% 5.59 mm 113.66 W/m2
15:34 26.0 °C 26.0 °C 1011.5 hPa SE 14 km/h 16 km/h 97% 2.79 mm 102.91 W/m2
15:39 26.0 °C 26.0 °C 1011.5 hPa SSE 12 km/h 16 km/h 97% 1.78 mm 92.37 W/m2
15:44 26.0 °C 26.0 °C 1011.5 hPa SSE 8 km/h 12 km/h 96% 1.27 mm 90.01 W/m2
15:49 26.0 °C 26.0 °C 1011.5 hPa SSE 6 km/h 8 km/h 96% 0.51 mm 84.28 W/m2
15:54 27.0 °C 26.0 °C 1011.5 hPa South 5 km/h 8 km/h 95% 0.25 mm 85.48 W/m2
15:59 27.0 °C 26.0 °C 1011.5 hPa SSE 3 km/h 8 km/h 95% 0.00 mm 76.26 W/m2
16:04 27.0 °C 26.0 °C 1011.5 hPa South 4 km/h 8 km/h 95% 0.00 mm 64.70 W/m2
16:09 27.0 °C 26.0 °C 1011.5 hPa South 5 km/h 8 km/h 95% 0.00 mm 54.84 W/m2
16:14 27.0 °C 26.0 °C 1011.5 hPa WNW 10 km/h 12 km/h 94% 0.00 mm 50.30 W/m2
16:19 27.0 °C 26.0 °C 1011.5 hPa West 5 km/h 12 km/h 94% 0.00 mm 44.43 W/m2
16:24 27.0 °C 26.0 °C 1011.5 hPa West 5 km/h 8 km/h 94% 0.00 mm 47.09 W/m2
16:29 27.0 °C 26.0 °C 1011.5 hPa SW 5 km/h 8 km/h 94% 0.00 mm 43.74 W/m2
16:34 27.0 °C 26.0 °C 1011.5 hPa SW 3 km/h 8 km/h 94% 0.00 mm 39.87 W/m2
16:39 27.0 °C 26.0 °C 1011.5 hPa SSW 4 km/h 4 km/h 94% 0.00 mm 34.94 W/m2
16:44 27.0 °C 26.0 °C 1011.5 hPa SW 1 km/h 4 km/h 94% 0.00 mm 26.59 W/m2
16:49 27.0 °C 26.0 °C 1011.5 hPa South 5 km/h 8 km/h 93% 0.00 mm 40.43 W/m2
16:54 27.0 °C 26.0 °C 1011.5 hPa South 6 km/h 8 km/h 93% 0.00 mm 55.85 W/m2
16:59 27.0 °C 26.0 °C 1011.5 hPa SSE 3 km/h 4 km/h 93% 0.00 mm 55.76 W/m2
17:04 27.0 °C 26.0 °C 1011.5 hPa South 4 km/h 8 km/h 92% 0.00 mm 44.72 W/m2
17:09 27.0 °C 26.0 °C 1011.5 hPa SSW 1 km/h 4 km/h 92% 0.00 mm 31.26 W/m2
17:14 27.0 °C 26.0 °C 1011.9 hPa South 3 km/h 4 km/h 92% 0.00 mm 24.80 W/m2
17:19 27.0 °C 25.0 °C 1011.9 hPa South 4 km/h 4 km/h 91% 0.00 mm 17.38 W/m2
17:24 27.0 °C 25.0 °C 1011.9 hPa South 4 km/h 4 km/h 91% 0.00 mm 13.93 W/m2
17:29 27.0 °C 26.0 °C 1011.9 hPa South 4 km/h 8 km/h 91% 0.00 mm 14.03 W/m2
17:34 27.0 °C 26.0 °C 1011.9 hPa South 3 km/h 4 km/h 91% 0.00 mm 11.28 W/m2
17:39 27.0 °C 26.0 °C 1011.9 hPa South 3 km/h 4 km/h 91% 0.00 mm 6.91 W/m2
17:44 27.0 °C 26.0 °C 1011.9 hPa WNW 1 km/h 4 km/h 91% 0.00 mm 5.15 W/m2
17:49 27.0 °C 26.0 °C 1011.9 hPa SSE 3 km/h 4 km/h 91% 0.00 mm 3.43 W/m2
17:54 27.0 °C 25.0 °C 1011.9 hPa South 4 km/h 4 km/h 91% 0.00 mm 1.46 W/m2
17:59 27.0 °C 25.0 °C 1012.2 hPa South 3 km/h 4 km/h 91% 0.00 mm 0.00 W/m2
18:04 27.0 °C 25.0 °C 1012.2 hPa Calm     91% 0.00 mm 0.00 W/m2
18:09 27.0 °C 25.0 °C 1012.2 hPa SSE 5 km/h 8 km/h 91% 0.00 mm 0.00 W/m2
18:14 27.0 °C 25.0 °C 1012.2 hPa SSE 5 km/h 8 km/h 91% 0.00 mm 0.00 W/m2
18:19 27.0 °C 25.0 °C 1012.5 hPa SSE 5 km/h 8 km/h 91% 0.00 mm 0.00 W/m2
18:24 27.0 °C 26.0 °C 1012.5 hPa SSE 4 km/h 4 km/h 91% 0.00 mm 0.00 W/m2
18:29 27.0 °C 26.0 °C 1012.5 hPa SSE 5 km/h 8 km/h 91% 0.00 mm 0.00 W/m2
18:34 27.0 °C 26.0 °C 1012.5 hPa SSE 6 km/h 8 km/h 92% 1.78 mm 0.00 W/m2
18:39 27.0 °C 26.0 °C 1012.5 hPa SSE 6 km/h 8 km/h 93% 1.78 mm 0.00 W/m2
18:44 27.0 °C 26.0 °C 1012.5 hPa SSE 3 km/h 4 km/h 94% 1.78 mm 0.00 W/m2
18:49 27.0 °C 26.0 °C 1012.5 hPa South 4 km/h 4 km/h 94% 0.25 mm 0.00 W/m2
18:54 27.0 °C 26.0 °C 1012.9 hPa SSE 5 km/h 8 km/h 95% 0.25 mm 0.00 W/m2
18:59 27.0 °C 26.0 °C 1012.9 hPa SSE 4 km/h 4 km/h 95% 1.78 mm 0.00 W/m2
19:04 27.0 °C 26.0 °C 1013.2 hPa SSE 4 km/h 8 km/h 95% 1.78 mm 0.00 W/m2
19:09 26.0 °C 26.0 °C 1013.2 hPa SSE 5 km/h 8 km/h 96% 1.78 mm 0.00 W/m2
19:14 26.0 °C 26.0 °C 1013.2 hPa SSE 3 km/h 4 km/h 97% 3.56 mm 0.00 W/m2
19:19 26.0 °C 26.0 °C 1013.2 hPa SSE 1 km/h 4 km/h 97% 3.56 mm 0.00 W/m2
19:24 26.0 °C 26.0 °C 1013.2 hPa Calm     97% 1.78 mm 0.00 W/m2
19:29 26.0 °C 26.0 °C 1013.2 hPa Calm     97% 1.27 mm 0.00 W/m2
19:34 26.0 °C 26.0 °C 1013.2 hPa Calm     97% 1.27 mm 0.00 W/m2
19:39 26.0 °C 26.0 °C 1013.2 hPa Calm     97% 1.02 mm 0.00 W/m2
19:44 26.0 °C 26.0 °C 1013.2 hPa Calm     97% 1.02 mm 0.00 W/m2
19:49 26.0 °C 26.0 °C 1013.6 hPa Calm     97% 1.02 mm 0.00 W/m2
19:54 26.0 °C 26.0 °C 1013.6 hPa South 3 km/h 4 km/h 97% 1.02 mm 0.00 W/m2
19:59 26.0 °C 26.0 °C 1013.6 hPa South 1 km/h 4 km/h 97% 1.02 mm 0.00 W/m2
20:04 26.0 °C 26.0 °C 1013.6 hPa Calm     98% 0.76 mm 0.00 W/m2
20:09 26.0 °C 26.0 °C 1013.6 hPa South 4 km/h 4 km/h 98% 0.76 mm 0.00 W/m2
20:14 26.0 °C 26.0 °C 1013.6 hPa SSW 2 km/h 4 km/h 98% 0.25 mm 0.00 W/m2
20:19 26.0 °C 26.0 °C 1013.9 hPa Calm     98% 0.00 mm 0.00 W/m2
20:24 26.0 °C 26.0 °C 1013.9 hPa Calm   4 km/h 98% 0.00 mm 0.00 W/m2
20:29 26.0 °C 26.0 °C 1013.9 hPa SSE 3 km/h 4 km/h 98% 0.00 mm 0.00 W/m2
20:34 26.0 °C 26.0 °C 1013.9 hPa SSW 4 km/h 8 km/h 98% 0.00 mm 0.00 W/m2
20:39 26.0 °C 26.0 °C 1013.9 hPa SSW 5 km/h 8 km/h 98% 0.00 mm 0.00 W/m2
20:44 26.0 °C 26.0 °C 1014.2 hPa Calm     98% 1.78 mm 0.00 W/m2
20:49 26.0 °C 26.0 °C 1014.2 hPa Calm     98% 1.78 mm 0.00 W/m2
20:54 26.0 °C 26.0 °C 1014.2 hPa South 5 km/h 8 km/h 98% 3.56 mm 0.00 W/m2
20:59 26.0 °C 25.0 °C 1014.2 hPa South 5 km/h 8 km/h 98% 3.56 mm 0.00 W/m2
21:04 26.0 °C 25.0 °C 1014.2 hPa Calm   4 km/h 98% 5.33 mm 0.00 W/m2
21:09 26.0 °C 25.0 °C 1014.2 hPa West 3 km/h 4 km/h 98% 5.33 mm 0.00 W/m2
21:14 26.0 °C 25.0 °C 1014.2 hPa Calm     99% 5.33 mm 0.00 W/m2
21:19 26.0 °C 26.0 °C 1014.2 hPa Calm     99% 5.33 mm 0.00 W/m2
21:24 26.0 °C 26.0 °C 1014.2 hPa South 4 km/h 8 km/h 99% 7.11 mm 0.00 W/m2
21:29 26.0 °C 25.0 °C 1014.6 hPa Calm   4 km/h 99% 7.11 mm 0.00 W/m2
21:34 26.0 °C 25.0 °C 1014.6 hPa Calm   4 km/h 99% 8.89 mm 0.00 W/m2
21:39 25.0 °C 25.0 °C 1014.6 hPa Calm     99% 12.70 mm 0.00 W/m2
21:44 25.0 °C 25.0 °C 1014.6 hPa South 3 km/h 4 km/h 99% 14.48 mm 0.00 W/m2
21:49 25.0 °C 25.0 °C 1014.6 hPa South 4 km/h 8 km/h 99% 12.70 mm 0.00 W/m2
21:54 25.0 °C 25.0 °C 1014.6 hPa South 3 km/h 8 km/h 99% 14.48 mm 0.00 W/m2
21:59 25.0 °C 25.0 °C 1014.6 hPa NW 1 km/h 4 km/h 99% 16.26 mm 0.00 W/m2
22:04 25.0 °C 25.0 °C 1014.6 hPa Calm     99% 16.26 mm 0.00 W/m2
22:09 25.0 °C 25.0 °C 1014.6 hPa Calm     99% 10.67 mm 0.00 W/m2
22:14 25.0 °C 25.0 °C 1014.6 hPa West 5 km/h 8 km/h 99% 9.65 mm 0.00 W/m2
22:19 25.0 °C 25.0 °C 1014.6 hPa Calm   4 km/h 99% 9.65 mm 0.00 W/m2
22:24 25.0 °C 25.0 °C 1014.6 hPa West 3 km/h 8 km/h 99% 9.14 mm 0.00 W/m2
22:29 25.0 °C 25.0 °C 1014.6 hPa WNW 7 km/h 12 km/h 99% 8.89 mm 0.00 W/m2
22:34 25.0 °C 25.0 °C 1014.6 hPa NW 12 km/h 20 km/h 99% 8.38 mm 0.00 W/m2
22:39 25.0 °C 25.0 °C 1014.6 hPa NW 10 km/h 20 km/h 99% 7.37 mm 0.00 W/m2
22:44 25.0 °C 25.0 °C 1014.6 hPa NW 13 km/h 20 km/h 99% 6.86 mm 0.00 W/m2
22:49 25.0 °C 25.0 °C 1014.6 hPa NW 13 km/h 20 km/h 99% 6.35 mm 0.00 W/m2
22:54 25.0 °C 25.0 °C 1014.6 hPa NW 12 km/h 16 km/h 99% 6.10 mm 0.00 W/m2
22:59 25.0 °C 25.0 °C 1014.6 hPa NNW 9 km/h 12 km/h 99% 4.32 mm 0.00 W/m2
23:04 25.0 °C 25.0 °C 1014.6 hPa NW 14 km/h 20 km/h 99% 3.56 mm 0.00 W/m2
23:09 25.0 °C 25.0 °C 1014.6 hPa NW 10 km/h 20 km/h 99% 5.33 mm 0.00 W/m2
23:14 25.0 °C 25.0 °C 1014.2 hPa NW 10 km/h 16 km/h 99% 3.56 mm 0.00 W/m2
23:19 25.0 °C 25.0 °C 1014.6 hPa NW 5 km/h 8 km/h 99% 3.56 mm 0.00 W/m2
23:24 25.0 °C 24.0 °C 1014.6 hPa NNW 5 km/h 8 km/h 99% 5.33 mm 0.00 W/m2
23:29 25.0 °C 24.0 °C 1014.6 hPa NW 7 km/h 8 km/h 99% 5.33 mm 0.00 W/m2
23:34 25.0 °C 24.0 °C 1014.2 hPa NNW 6 km/h 8 km/h 99% 5.33 mm 0.00 W/m2
23:39 25.0 °C 24.0 °C 1014.2 hPa NNW 6 km/h 8 km/h 99% 5.33 mm 0.00 W/m2
23:44 25.0 °C 24.0 °C 1014.2 hPa North 11 km/h 16 km/h 99% 3.81 mm 0.00 W/m2
23:49 24.0 °C 24.0 °C 1014.2 hPa NNW 10 km/h 16 km/h 99% 3.56 mm 0.00 W/m2
23:54 25.0 °C 24.0 °C 1014.2 hPa NNW 9 km/h 12 km/h 99% 5.33 mm 0.00 W/m2
23:59 25.0 °C 24.0 °C 1014.2 hPa NW 12 km/h 16 km/h 99% 3.56 mm 0.00 W/m2
PIMOHWEATHER Philippines
Compliments of Weather Underground - 2 mb